Location: Podia
(1.5569°N, 32.3469°E)
Time: 20:38:24
(UTC+00:00)

S-56A Canister/Altair - Pass Details

Date: 05 October 2020
Orbit: 632 x 2500 km, 38.9° (Epoch: 20 October)

Event Time Altitude Azimuth Distance (km) Brightness Sun altitude
Rises 17:58:44 0° 316° (NW) 5,518 12.4 -35.0°
Reaches altitude 10° 18:02:50 10° 319° (NW) 4,251 11.6 -36.0°
Enters shadow 18:11:03 49° 343° (NNW) 1,838 9.3 -38.0°
